Tracking 19219 objects as of 20-Jul-2018
HD Live streaming from Space Station
objects crossing your sky now

LEMUR 2 ANGELA

Track LEMUR 2 ANGELA now!
10-day predictions
LEMUR 2 ANGELA is classified as:


NORAD ID: 42752
Int'l Code: 2017-019B
Perigee: 478.5 km
Apogee: 492.1 km
Inclination: 51.6 °
Period: 94.2 minutes
Semi major axis: 6856 km
RCS: Unknown
Launch date: April 18, 2017
Source: United States (US)
Launch site: AIR FORCE EASTERN TEST RANGE (AFETR)
aabbcc
Your satellite tracking list
Your tracking list is empty




NASA's NSSDC Master Catalog

Two Line Element Set (TLE):
1 42752U 17019B   18201.13407456  .00001589  00000-0  67729-4 0  9998
2 42752  51.6419 292.1640 0009927 326.9629  33.0729 15.29207781 62156
Source of the keplerian elements: AFSPC